Plainview, TX

2:13 PM CDT on September 19, 2017 (GMT -0500)
Hale County

Weather History for KPVW - July, 2013

Change the Weather History Date:

Sunday, July 14, 2013

  Actual Average Record
Temperature  
Mean Temperature 77 °F -  
Max Temperature 95 °F 90 °F 106 °F (1933)
Min Temperature 59 °F 66 °F 53 °F (1953)
Cooling Degree Days 12    
Growing Degree Days 27 (Base 50)    
Moisture  
Dew Point 52 °F    
Average Humidity 49    
Maximum Humidity 94    
Minimum Humidity 18    
Precipitation  
Precipitation 0.00 in - - ()
Sea Level Pressure  
Sea Level Pressure 30.01 in    
Wind  
Wind Speed 10 mph (SSE)    
Max Wind Speed 25 mph    
Max Gust Speed 33 mph    
Visibility 10 miles    
Events Rain , Thunderstorm    
Averages and records for this station are not official NWS values.
T = Trace of Precipitation, MM = Missing Value Source: NWS Daily Summary

Daily Weather History Graph

Daily Weather History Graph

Search for Another Location

Airport or City:

Trip Planner

Search our weather history database for the weather conditions in past years. The results will help you decide how hot, cold, wet, or windy it might be!

Date:

Astronomy

Jul. 14, 2013 Rise Set
Actual Time 6:45 AM CDT 8:59 PM CDT
Civil Twilight 6:17 AM CDT 9:27 PM CDT
Nautical Twilight 5:42 AM CDT 10:02 PM CDT
Astronomical Twilight 5:04 AM CDT 10:40 PM CDT
Moon 12:45 PM CDT (7/14) No Moon Set
Length of Visible Light 15h 10m
Length of Day
14h 13m
Waxing Crescent, 35% of the Moon is Illuminated
Jul 14
Waxing Crescent
Jul 15
First Quarter
Jul 22
Full
Jul 29
Last Quarter
Aug 6
New

Hourly Weather History & Observations

Time (CDT) Temp. Heat Index Dew Point Humidity Pressure Visibility Wind Dir Wind Speed Gust Speed Precip Events Conditions
12:15 AM 75.2 °F - 47.5 °F 37% 30.04 in 10.0 mi SSE 8.1 mph - N/A   Scattered Clouds
12:35 AM 75.2 °F - 46.6 °F 36% 30.04 in 10.0 mi SSE 6.9 mph - N/A   Scattered Clouds
12:55 AM 75.2 °F - 45.7 °F 35% 30.04 in 10.0 mi South 4.6 mph - N/A   Clear
1:15 AM 75.2 °F - 45.1 °F 34% 30.04 in 10.0 mi Calm Calm - N/A   Clear
1:35 AM 75.2 °F - 45.9 °F 35% 30.04 in 10.0 mi SW 5.8 mph - N/A   Clear
1:55 AM 75.0 °F - 47.3 °F 37% 30.03 in 10.0 mi SW 4.6 mph - N/A   Clear
2:15 AM 74.8 °F - 47.1 °F 37% 30.02 in 10.0 mi SW 4.6 mph - N/A   Clear
2:35 AM 75.2 °F - 46.8 °F 36% 30.02 in 10.0 mi SSW 5.8 mph - N/A   Clear
2:55 AM 73.8 °F - 45.3 °F 36% 30.01 in 10.0 mi SW 5.8 mph - N/A   Clear
3:15 AM 72.5 °F - 45.1 °F 37% 30.01 in 10.0 mi SW 4.6 mph - N/A   Clear
3:35 AM 70.0 °F - 44.1 °F 39% 30.01 in 10.0 mi SSW 4.6 mph - N/A   Clear
3:55 AM 70.3 °F - 44.1 °F 39% 30.01 in 10.0 mi WSW 4.6 mph - N/A   Clear
4:15 AM 67.3 °F - 47.3 °F 49% 30.01 in 10.0 mi West 4.6 mph - N/A   Clear
4:35 AM 67.5 °F - 48.0 °F 50% 30.00 in 10.0 mi West 4.6 mph - N/A   Clear
4:55 AM 65.8 °F - 47.7 °F 52% 30.00 in 10.0 mi Calm Calm - N/A   Clear
5:15 AM 68.9 °F - 48.4 °F 48% 29.99 in 10.0 mi SW 3.5 mph - N/A   Clear
5:35 AM 65.5 °F - 46.9 °F 51% 30.00 in 10.0 mi SSW 5.8 mph - N/A   Clear
5:55 AM 63.1 °F - 46.4 °F 54% 30.00 in 10.0 mi WNW 8.1 mph - N/A   Clear
6:15 AM 62.8 °F - 47.5 °F 57% 29.99 in 10.0 mi WSW 4.6 mph - N/A   Clear
6:35 AM 61.9 °F - 48.7 °F 62% 29.99 in 10.0 mi West 5.8 mph - N/A   Clear
6:55 AM 63.1 °F - 48.2 °F 58% 29.99 in 10.0 mi West 5.8 mph - N/A   Clear
7:15 AM 63.1 °F - 48.7 °F 59% 29.99 in 10.0 mi West 6.9 mph - N/A   Clear
7:35 AM 66.7 °F - 49.5 °F 54% 29.99 in 10.0 mi West 5.8 mph - N/A   Clear
7:55 AM 70.0 °F - 48.9 °F 47% 29.99 in 10.0 mi West 6.9 mph - N/A   Clear
8:15 AM 73.2 °F - 49.5 °F 43% 30.00 in 10.0 mi West 9.2 mph - N/A   Clear
8:35 AM 75.2 °F - 49.3 °F 40% 30.00 in 10.0 mi West 11.5 mph - N/A   Clear
8:55 AM 77.5 °F - 49.6 °F 37% 30.00 in 10.0 mi West 13.8 mph - N/A   Clear
9:15 AM 80.2 °F - 48.6 °F 33% 30.00 in 10.0 mi West 15.0 mph - N/A   Clear
9:35 AM 82.6 °F - 49.1 °F 31% 30.00 in 10.0 mi West 16.1 mph - N/A   Clear
9:55 AM 83.8 °F - 49.1 °F 30% 30.00 in 10.0 mi West 17.3 mph - N/A   Clear
10:15 AM 86.9 °F - 50.9 °F 29% 30.00 in 10.0 mi West 15.0 mph - N/A   Clear
10:35 AM 90.1 °F - 50.9 °F 26% 29.99 in 10.0 mi West 18.4 mph 24.2 mph N/A   Clear
10:55 AM 90.1 °F - 49.1 °F 24% 29.99 in 10.0 mi West 17.3 mph 21.9 mph N/A   Clear
11:15 AM 91.9 °F - 49.3 °F 23% 30.00 in 10.0 mi WNW 12.7 mph - N/A   Clear
11:35 AM 91.4 °F - 48.9 °F 23% 29.99 in 10.0 mi West 11.5 mph - N/A   Clear
11:55 AM 95.2 °F - 49.3 °F 21% 29.99 in 10.0 mi NW 8.1 mph - N/A   Clear
12:15 PM 95.2 °F - 48.0 °F 20% 29.99 in 10.0 mi WNW 10.4 mph - N/A   Clear
12:35 PM 95.2 °F - 45.9 °F 18% 29.98 in 10.0 mi West 10.4 mph - N/A   Clear
12:55 PM 95.2 °F - 45.0 °F 18% 29.97 in 10.0 mi NNW 6.9 mph - N/A   Clear
1:15 PM 95.2 °F 93.9 °F 57.0 °F 28% 29.97 in 10.0 mi East 20.7 mph 25.3 mph N/A   Clear
1:35 PM 90.1 °F 88.1 °F 54.7 °F 30% 29.98 in 10.0 mi East 18.4 mph 27.6 mph N/A   Clear
1:55 PM 90.1 °F 88.1 °F 54.7 °F 30% 29.97 in 10.0 mi East 21.9 mph 27.6 mph N/A   Clear
2:15 PM 89.8 °F 88.1 °F 55.9 °F 32% 29.97 in 10.0 mi East 20.7 mph 25.3 mph N/A   Clear
2:35 PM 89.2 °F 87.7 °F 56.3 °F 33% 29.97 in 10.0 mi East 17.3 mph 24.2 mph N/A   Clear
2:55 PM 90.1 °F 88.6 °F 56.8 °F 32% 29.97 in 10.0 mi East 18.4 mph 25.3 mph N/A   Clear
3:15 PM 88.7 °F 86.9 °F 55.2 °F 32% 29.97 in 10.0 mi East 19.6 mph 24.2 mph N/A   Clear
3:35 PM 87.8 °F 86.5 °F 57.2 °F 35% 29.97 in 10.0 mi East 20.7 mph 26.5 mph N/A   Clear
3:55 PM 85.3 °F 84.1 °F 56.5 °F 37% 29.98 in 10.0 mi East 21.9 mph 29.9 mph N/A   Clear
4:15 PM 80.1 °F 80.4 °F 57.2 °F 45% 29.99 in 10.0 mi East 25.3 mph 33.4 mph N/A   Clear
4:35 PM 77.5 °F - 57.2 °F 49% 30.01 in 10.0 mi East 24.2 mph 29.9 mph N/A   Clear
4:55 PM 77.5 °F - 57.2 °F 49% 30.01 in 10.0 mi East 19.6 mph 25.3 mph N/A   Scattered Clouds
5:15 PM 75.9 °F - 57.2 °F 52% 30.01 in 10.0 mi East 20.7 mph - N/A Rain Light Rain
5:35 PM 75.2 °F - 60.6 °F 60% 30.02 in 10.0 mi East 18.4 mph 26.5 mph N/A Rain Light Rain
5:55 PM 75.2 °F - 59.4 °F 58% 30.01 in 10.0 mi ESE 15.0 mph 24.2 mph N/A   Scattered Clouds
6:15 PM 75.2 °F - 57.9 °F 55% 30.00 in 10.0 mi ESE 13.8 mph 21.9 mph N/A   Scattered Clouds
6:35 PM 73.8 °F - 58.8 °F 59% 30.00 in 10.0 mi ESE 15.0 mph 23.0 mph N/A Rain Rain
6:55 PM 70.0 °F - 59.4 °F 69% 29.99 in 10.0 mi ESE 16.1 mph 24.2 mph N/A Rain Light Rain
7:15 PM 70.0 °F - 57.6 °F 65% 30.00 in 10.0 mi ESE 20.7 mph 26.5 mph N/A   Scattered Clouds
7:35 PM 69.1 °F - 58.8 °F 70% 30.02 in 10.0 mi East 23.0 mph 28.8 mph N/A   Mostly Cloudy
7:55 PM 64.9 °F - 57.0 °F 75% 30.04 in 10.0 mi East 20.7 mph 26.5 mph N/A   Overcast
8:15 PM 63.7 °F - 56.3 °F 77% 30.05 in 10.0 mi East 23.0 mph 27.6 mph N/A   Overcast
8:35 PM 61.3 °F - 57.4 °F 87% 30.05 in 10.0 mi ESE 18.4 mph 26.5 mph N/A Rain Light Rain
8:55 PM 59.9 °F - 56.8 °F 90% 30.07 in 10.0 mi ESE 19.6 mph 24.2 mph N/A Rain Light Rain
9:15 PM 59.9 °F - 56.7 °F 89% 30.06 in 10.0 mi ESE 18.4 mph 23.0 mph N/A Rain Light Rain
9:35 PM 59.9 °F - 57.0 °F 90% 30.07 in 10.0 mi ESE 12.7 mph 17.3 mph N/A Rain Light Rain
9:55 PM 59.9 °F - 57.0 °F 90% 30.06 in 10.0 mi ESE 11.5 mph 16.1 mph N/A   Overcast
10:15 PM 59.9 °F - 57.2 °F 91% 30.08 in 10.0 mi East 13.8 mph 21.9 mph N/A   Overcast
10:35 PM 59.9 °F - 56.8 °F 90% 30.10 in 10.0 mi East 15.0 mph - N/A   Overcast
10:55 PM 59.9 °F - 56.8 °F 90% 30.10 in 10.0 mi East 6.9 mph - N/A   Overcast
11:15 PM 59.9 °F - 56.7 °F 89% 30.12 in 10.0 mi East 10.4 mph - N/A Rain Light Rain
11:35 PM 59.9 °F - 57.6 °F 92% 30.13 in 5.0 mi East 6.9 mph 11.5 mph N/A Rain Heavy Rain
11:55 PM 59.9 °F - 58.1 °F 94% 30.13 in 7.0 mi East 8.1 mph - N/A Rain , Thunderstorm Thunderstorms and Rain